Regional Weather Roundup
Issued by NWS Raleigh/Durham, NC

Home | Current Version | Previous Version | Text Only | Print | Product List | Glossary On
Versions: 1 2 3 4 5 6 7 8 9 10 11 12 13 14 15 16 17 18 19 20 21 22 23 24 25 26 27 28 29 30 31 32 33 34 35 36 37 38 39 40 41 42 43 44 45 46 47 48 49 50
000
ASUS42 KRAH 292210
RWRRAH
NORTH CAROLINA WEATHER ROUNDUP
NATIONAL WEATHER SERVICE RALEIGH NC
600 PM EDT TUE JUL 29 2014

NOTE: "FAIR" INDICATES FEW OR NO CLOUDS BELOW 12,000 FEET WITH NO
SIGNIFICANT WEATHER AND/OR OBSTRUCTIONS TO VISIBILITY.

NCZ001-053-055-056-065-067-292300-
WESTERN NORTH CAROLINA

CITY           SKY/WX    TMP DP  RH WIND       PRES   REMARKS
ASHEVILLE      PTSUNNY   74  54  49 N13       30.03R
JEFFERSON      MOSUNNY   69  42  36 W10       30.06S
MORGANTON      MOSUNNY   79  52  38 NW3       30.02R
HICKORY        PTSUNNY   80  51  36 SW7       29.97R
RUTHERFORDTON  PTSUNNY   78  57  47 CALM      29.98R
MOUNT AIRY     PTSUNNY   78  55  44 CALM      29.96S
BOONE          SUNNY     68  45  43 NW9G23    30.07S
$$

NCZ021-022-025-041-071-084-088-292300-
CENTRAL NORTH CAROLINA

CITY           SKY/WX    TMP DP  RH WIND       PRES   REMARKS
CHARLOTTE      MOSUNNY   81  54  39 CALM      29.96R
GREENSBORO     PTSUNNY   79  54  41 SW5       29.95S
WINSTON-SALEM  PTSUNNY   79  51  37 VRB3      29.97R
RALEIGH-DURHAM MOSUNNY   81  55  40 SE5       29.94S
FORT BRAGG     SUNNY     81  60  47 N3        29.92R
FAYETTEVILLE   MOSUNNY   83  59  44 NE8       29.92R
BURLINGTON     PTSUNNY   79  54  41 S5        29.95R
LAURINBURG     SUNNY     85  56  37 NW10      29.93R
$$

NCZ011-015-027-028-043-044-047-080-103-292300-
NORTHEASTERN NORTH CAROLINA

CITY           SKY/WX    TMP DP  RH WIND       PRES   REMARKS
ROCKY MT-WILSO SUNNY     82  56  40 NW5       29.95R
GREENVILLE     PTSUNNY   81  59  47 N7        29.97R
WASHINGTON     SUNNY     80  59  49 N7        29.94R
ELIZABETH CITY MOSUNNY   77  64  64 E8        29.94R
MANTEO         NOT AVBL
CAPE HATTERAS  MOSUNNY   80  66  62 NE10G17   29.93R
$$

NCZ078-087-090-091-093-098-101-292300-
SOUTHEASTERN NORTH CAROLINA

CITY           SKY/WX    TMP DP  RH WIND       PRES   REMARKS
LUMBERTON      PTSUNNY   83  61  47 W5        29.91R
GOLDSBORO      PTSUNNY   82  63  52 N8        29.92R
KINSTON        SUNNY     82  59  44 NE9       29.94S
KENANSVILLE    MOSUNNY   80  62  52 NE3       29.94R
NEW BERN       PTSUNNY   83  65  54 NE6       29.93R
CHERRY POINT   MOSUNNY   82  66  58 E8        29.92R
BEAUFORT       MOSUNNY   82  65  56 NE7       29.91S
JACKSONVILLE   CLOUDY    85  64  49 NW10      29.90S
WILMINGTON     PTSUNNY   81  68  64 VRB5      29.91R
$$




USA.gov is the U.S. government's official web portal to all federal, state and local government web resources and services.